Regional Weather Roundup
Issued by NWS

Home | Current Version | Previous Version | Text Only | Print | Product List | Glossary Off
Versions: 1 2 3 4 5 6 7 8 9 10 11 12 13 14 15 16 17 18 19 20 21 22 23 24 25 26 27 28 29 30 31 32 33 34 35 36 37 38 39 40 41 42 43 44 45 46 47 48 49 50

000
ASUS43 KIND 172009
RWRIN

WEATHER ROUNDUP FOR INDIANA
NATIONAL WEATHER SERVICE INDIANAPOLIS IN
400 PM EDT WED SEP 17 2014

NOTE: "FAIR" INDICATES FEW OR NO CLOUDS BELOW 12,000 FEET WITH NO
SIGNIFICANT WEATHER AND/OR OBSTRUCTIONS TO VISIBILITY.

* - STATION DOES NOT REPORT WEATHER SUCH AS PRECIPITATION OR FOG.

+ - STATION NOT QUALITY CONTROLLED BY THE NATIONAL WEATHER SERVICE.
    USE DATA WITH CAUTION...ESPECIALLY DEWPOINT AND RELATIVE
    HUMIDITY OBSERVATIONS.

INZ001>003-010>013-019-020-172100-
NORTHWEST INDIANA

CITY           SKY/WX    TMP DP  RH WIND       PRES   REMARKS
GARY /AIRPORT/ MOSUNNY   70  46  43 NE9       29.99F
KNOX *+        PTSUNNY   68  46  45 W3        29.99F
LA PORTE +     PTSUNNY   65  46  48 NW6       30.00F
MICHIGAN CITY+ SUNNY     64  45  48 N6        30.01F
MONTICELLO +   PTSUNNY   69  49  49 SW6       29.99F
RENSSELAER +   MOSUNNY   70  46  43 W5        29.99F
VALPARAISO     MOSUNNY   68  46  45 W5        30.00F

$$

LMZ046-743>745-172100-
SOUTHERN LAKE MICHIGAN

STATION/POSITION TIME  TEMP WIND        PRES
                       AIR  DIR/SP/G
                 (UTC) (F)  (DEG/KT/KT) (MB)
MICHIGAN CITY    2000   64  340/  7/  8   N/A

$$

INZ004-005-014>016-021>024-172100-
NORTH CENTRAL INDIANA

CITY           SKY/WX    TMP DP  RH WIND       PRES   REMARKS
ELKHART        PTSUNNY   68  43  40 W6        30.00F
GOSHEN         MOSUNNY   69  47  45 W12       30.00F
LOGANSPORT +   MOSUNNY   68  45  42 CALM      30.01F
PERU/GRISSOM   MOSUNNY   69  52  53 SW8       29.99F
ROCHESTER +    MOSUNNY   72  45  37 SW7       30.00F
SOUTH BEND     MOSUNNY   68  44  42 VRB5      30.00F
WARSAW +       PTSUNNY   66  46  48 W6        30.00F

$$

INZ006>009-017-018-025>027-172100-
NORTHEAST INDIANA

CITY           SKY/WX    TMP DP  RH WIND       PRES   REMARKS
ANGOLA *+      MOSUNNY   66  57  72 W5        30.00F
AUBURN +       SUNNY     64  43  45 SW5       30.01F
FORT WAYNE     MOSUNNY   67  47  48 SW7       30.01F
HUNTINGTON +   MOSUNNY   65  49  56 SW3       30.00F

$$

INZ028-029-035-036-043>045-051>053-172100-
WEST CENTRAL INDIANA

CITY           SKY/WX    TMP DP  RH WIND       PRES   REMARKS
GREENCASTLE +  PTSUNNY   63  50  63 CALM      30.02F
LAFAYETTE      MOSUNNY   68  49  50 W7        30.00F
TERRE HAUTE    CLOUDY    66  50  56 CALM      30.01F

$$

INZ030>032-037>040-046>048-054>057-064-065-172100-
CENTRAL INDIANA

CITY           SKY/WX    TMP DP  RH WIND       PRES   REMARKS
ANDERSON       MOSUNNY   66  46  48 S6        30.03F
CP ATTERBURY + PTSUNNY   63  46  55 CALM      30.04S
COLUMBUS       MOSUNNY   64  50  59 MISG      30.03F
FRANKFORT +    MOSUNNY   71  49  45 W6        30.02F
GREENWOOD *+   MOSUNNY   68  52  56 S5        30.03F
INDIANAPOLIS   PTSUNNY   65  48  54 W3        30.02F
-EAGLE CREEK   MOSUNNY   66  46  48 SW3       30.01F
KOKOMO *+      MOSUNNY   68  46  45 CALM      30.00F
MARION +       PTSUNNY   69  44  40 CALM      30.01S
MT COMFORT *+  MOSUNNY   64  39  39 CALM      30.02F
SHELBYVILLE    MOSUNNY   67  47  48 S5        30.02F
ZIONSVILLE +   MOSUNNY   67  50  53 S3        30.02F

$$

INZ033-034-041-042-049-050-058-059-172100-
EAST CENTRAL INDIANA

CITY           SKY/WX    TMP DP  RH WIND       PRES   REMARKS
MUNCIE         SUNNY     66  46  48 VRB5      30.01F

$$

INZ060-061-067>069-081>083-085>088-172100-
SOUTHWEST INDIANA

CITY           SKY/WX    TMP DP  RH WIND       PRES   REMARKS
EVANSVILLE     CLOUDY    68  50  52 E5        29.98F
WASHINGTON +   MOSUNNY   69  51  53 CALM      30.00F

$$

INZ062-063-066-070>080-084-089>092-172100-
SOUTH CENTRAL AND SOUTHEAST INDIANA

CITY           SKY/WX    TMP DP  RH WIND       PRES   REMARKS
BLOOMINGTON    MOSUNNY   64  48  56 W3        30.02F
SEYMOUR +      PTSUNNY   68  50  52 SW7       30.03

$$




USA.gov is the U.S. government's official web portal to all federal, state and local government web resources and services.